sat.trackr.live / text

‹ back to catalog

STARLINK-34842

NORAD 65235 · 2025-179A

PAYLOAD ACTIVE UNKNOWN

§ Identity

Operator
Country
US
Launch date
2025-08-18
Launch site
AFWTR
Launch vehicle
Mass (kg)
RCS (m²)

Purposes: comms

External: N2YO · Heavens-Above · Gunter

§ Orbital elements

Epoch: 2026-09-20T13:27:04.823136Z

Period
93.91 min
Inclination
97.2851°
Eccentricity
0.0000961
Mean motion
15.33452557 rev/d
Perigee alt
464.9 km
Apogee alt
466.2 km
Semi-major
6,843.7 km
B*
3.0109e-4
RAAN
302.9077°
Arg perigee
96.0325°
Mean anomaly
264.1027°
Rev number
6,138

§ Raw data

STARLINK-348421 65235U 25179A   26263.56047249  .00009660  00000+0  30109-3 0  99972 65235  97.2851 302.9077 0000961  96.0325 264.1027 15.33452557 61384

JSON: /api/v1/satellites/65235 · /tle

For live sub-satellite position, see the globe view (requires WebGL).

§ Visibility from observer

Set your observer location to see the next 7 days of passes ≥ 10°. The values pass through the URL so the page stays shareable.

No JS? Fill the form by hand. The geolocation button needs JavaScript.